Regional Weather Roundup
Issued by NWS San Angelo, TX

Home | Current Version | Previous Version | Text Only | Print | Product List | Glossary On
Versions: 1 2 3 4 5 6 7 8 9 10 11 12 13 14 15 16 17 18 19 20 21 22 23 24 25 26 27 28 29 30 31 32 33 34 35 36 37 38 39 40 41 42 43 44 45 46 47 48 49 50
000
ASUS44 KSJT 252310
RWRSJT
WEST CENTRAL TEXAS REGIONAL WEATHER ROUNDUP
NATIONAL WEATHER SERVICE SAN ANGELO TX
600 PM CDT FRI JUL 25 2014

NOTE: "FAIR" INDICATES FEW OR NO CLOUDS BELOW 12,000 FEET WITH NO
SIGNIFICANT WEATHER AND/OR OBSTRUCTIONS TO VISIBILITY.

TXZ049-054-064>066-071>073-076>078-098-099-113-114-127-128-139-140-
154-155-168>170-260000
...LOCATIONS ACROSS WEST CENTRAL TEXAS...

CITY           SKY/WX    TMP DP  RH WIND       PRES   REMARKS
SAN ANGELO     MOSUNNY   98  58  26 SE12G20   29.93F
ABILENE        SUNNY     96  58  27 S10G20    29.95F
DYESS AFB      SUNNY     96  63  33 S17       29.94F
JUNCTION       MOSUNNY   94  63  35 SE13      29.95F
SWEETWATER     SUNNY     99  50  18 S9G17     29.99F
BROWNWOOD      SUNNY     95  63  34 E9        29.95F
COLEMAN        CLEAR     96  59  28 SE8       29.96F
SONORA         MOSUNNY   95  59  30 SE10      30.01F
OZONA          FAIR      95  55  26 SE12      30.00F
BRADY          SUNNY     95  63  34 SE6       29.96F
$$

TEXAS PANHANDLE/OKLAHOMA PANHANDLE

CITY           SKY/WX    TMP DP  RH WIND       PRES   REMARKS
AMARILLO       SUNNY     99  54  22 S18G28    29.98F
BORGER         SUNNY    102  51  18 S18G28    29.91F
CANADIAN       SUNNY    102  57  22 S22G30    29.86F
DALHART        SUNNY    103  40  11 S15       29.95F
DUMAS          CLEAR    101  50  18 S17G25    29.93F
GUYMON         NOT AVBL
HEREFORD       CLEAR     98  58  26 SE17G23   30.00F
PAMPA          CLEAR     99  52  20 S17G23    29.95F
PERRYTON       SUNNY    105  48  15 S22G28    29.87F
$$

SOUTHERN PANHANDLE/SOUTH PLAINS/ROLLING PLAINS

CITY           SKY/WX    TMP DP  RH WIND       PRES   REMARKS
LUBBOCK        MOSUNNY   98  48  18 S14G21    29.99F
SNYDER         SUNNY     98  51  20 S7        29.96F
CHILDRESS      SUNNY    102  53  19 S14G23    29.91F
SEMINOLE       CLEAR     98  41  14 SW7       30.01F
$$

PERMIAN BASIN

CITY           SKY/WX    TMP DP  RH WIND       PRES   REMARKS
MIDLAND        SUNNY     97  52  21 S8        29.98F
ODESSA         SUNNY     97  46  17 S13       29.99F
WINK           SUNNY     99  48  17 VRB6      29.94F
$$

FAR WEST/SOUTHWEST MOUNTAINS/TRANS PECOS

CITY           SKY/WX    TMP DP  RH WIND       PRES   REMARKS
ALPINE         CLEAR     92  47  21 E3        30.13F
DRYDEN           N/A    100  58  24 E12G17    29.93F
EL PASO        MOSUNNY   98  44  15 CALM      30.00F
FORT STOCKTON  SUNNY     95  49  20 SE7G21    29.98F
GUADALUPE PASS SUNNY     89  44  20 E12       30.17F
MARFA          SUNNY     90  45  20 E6        30.13F
PECOS          CLEAR    101  47  16 E9        29.93F
$$

DALLAS/FORT WORTH METROPLEX

CITY           SKY/WX    TMP DP  RH WIND       PRES   REMARKS
DFW AIRPORT    MOSUNNY   99  63  30 S14       29.90F
FTW MEACHAM    SUNNY    100  63  29 S12       29.89F
DAL-EXECUTIVE  SUNNY     98  63  31 VRB5      29.90F
GRAND PRAIRIE  SUNNY     99  61  28 S8        29.91F
ADDISON        MOSUNNY   99  63  30 SE9G21    29.91F
MESQUITE       PTCLDY    97  64  34 S9        29.91F
LANCASTER      CLEAR     97  64  33 S8        29.92S
$$

NORTH CENTRAL TEXAS

CITY           SKY/WX    TMP DP  RH WIND       PRES   REMARKS
SHRMAN/DENISON CLEAR     98  62  31 S10G16    29.92F
GAINESVILLE    SUNNY     95  66  38 S9        29.93F
BRIDGEPORT     CLEAR     97  58  26 S7        29.92S
DENTON         SUNNY     96  65  35 S12       29.90F
WAXAHACHIE     PTCLDY    97  61  29 S8        29.92F
GRANBURY       CLEAR     99  63  30 SE10G18   29.92F
$$

WESTERN NORTH TEXAS

CITY           SKY/WX    TMP DP  RH WIND       PRES   REMARKS
WICHITA FALLS  SUNNY     98  61  29 S16       29.87F
VERNON         CLEAR    103  53  18 S13G18    29.88F
BRECKENRIDGE   CLEAR    101  52  19 SW10      29.91F
COMANCHE       SUNNY     96  61  31 CALM      29.95F
$$

CENTRAL AND SOUTH CENTRAL TEXAS

CITY           SKY/WX    TMP DP  RH WIND       PRES   REMARKS
AUSTIN/BERGSTM MOSUNNY   96  66  37 S8        29.92F
WACO           SUNNY     96  66  37 S8        29.92F
HILLSBORO      PTCLDY    97  64  33 S7        29.92F
TEMPLE         SUNNY     93  66  40 E14       29.95S
KILLEEN-GRAY   MOSUNNY   93  66  40 SE9       29.94F
FORT HOOD      SUNNY     97  66  36 S7        29.94F
GEORGETOWN     MOSUNNY   93  66  40 SE7       29.93F
LAGO VISTA     FAIR      95  62  33 S6        29.97F
SAN MARCOS     SUNNY     97  64  34 S10G16    29.93F
NEW BRAUNFELS  PTSUNNY   97  63  32 S8        29.92F
RANDOLPH AFB   MOSUNNY   96  63  33 S9        29.93F
SAN ANTONIO    MOSUNNY   94  66  39 S8        29.94F
STINSON        SUNNY     96  65  35 SE8       29.91F
PLEASANTON     NOT AVBL
LA GRANGE      SUNNY     96  70  42 CALM      29.91F
GIDDINGS       CLEAR     93  68  43 CALM      29.97F
$$

EAST TEXAS

CITY           SKY/WX    TMP DP  RH WIND       PRES   REMARKS
PARIS          SUNNY     91  72  52 S12       29.95S
CLARKSVILLE    PTCLDY    93  72  49 SE7       29.95S
TYLER          SUNNY     92  71  50 S9        29.96F
LONGVIEW       MOSUNNY   92  70  48 S7        29.95F
PALESTINE      NOT AVBL
NACOGDOCHES    SUNNY     91  72  52 W3        29.97S
$$

TEXAS HILL COUNTRY AND EDWARDS PLATEAU

CITY           SKY/WX    TMP DP  RH WIND       PRES   REMARKS
LLANO          CLEAR     99  63  30 SE6       29.96F
HORSESHOE BAY  MOCLDY    94  60  31 S8        29.94F
KERRVILLE      SUNNY     92  64  39 S7        29.97F
FREDERICKSBRG  SUNNY     92  59  33 S12       29.97F
ROCKSPRINGS    CLEAR     91  64  40 S8        30.02S
HONDO          MOSUNNY   92  66  42 S8        29.94F
UVALDE         CLEAR     96  65  36 E9G16     29.92F
DEL RIO        MOSUNNY  100  64  30 SE12      29.86F
$$

SOUTHEAST TEXAS

CITY           SKY/WX    TMP DP  RH WIND       PRES   REMARKS
COLLEGE STN    SUNNY     92  70  48 SE10      29.94F
CALDWELL       PTCLDY    93  66  40 S5        29.97S
CROCKETT         N/A     93  73  52 CALM      29.98F
BRENHAM        SUNNY     93  67  42 CALM      29.95S
HUNTSVILLE     SUNNY     93  68  43 VRB5      29.96F
CONROE         SUNNY     91  70  49 SE5       29.96S
HOUSTON BUSH   MOSUNNY   92  73  53 VRB6      29.94S
HOUSTON HOBBY  MOSUNNY   92  73  53 SE8       29.94F
PERLAND        SUNNY     90  76  63 S8        29.97S
WHARTON        PTCLDY    91  73  54 SE13G18   29.96S
$$

THE UPPER TEXAS COAST

CITY           SKY/WX    TMP DP  RH WIND       PRES   REMARKS
ORANGE         CLEAR     89  74  62 SW9       29.97S
PORT ARTHUR    PTSUNNY   88  76  67 S7        29.95F
GALVESTON      SUNNY     89  76  65 S14       29.97F
ANGLETON       SUNNY     89  74  60 S15       29.96F
BAY CITY       CLEAR     91  74  58 S10       29.96S
$$

TEXAS COASTAL BEND, RIO GRANDE PLAINS DEEP SOUTH TEXAS

CITY           SKY/WX    TMP DP  RH WIND       PRES   REMARKS
VICTORIA       SUNNY     93  69  45 S15       29.94F
BEEVILLE       FAIR      92  71  50 S15       29.93F
ROCKPORT       SUNNY     88  74  63 SE13G21   29.94F
PORT ARANSAS   CLEAR     86  78  75 SE10G16   29.95F
PORT LAVACA    CLEAR     89  73  59 S15G21    29.94F
CORPUS CHRISTI MOSUNNY   82  74  76 SE10      29.94F
KINGSVILLE NAS PTSUNNY   87  72  60 E14       29.92F
COTULLA        LGT RAIN  95  66  38 S21G30    29.90R
LAREDO         CLOUDY    88  75  65 N7        29.93S
BROWNSVILLE    SUNNY     91  72  53 SE17G25   29.94F
PORT ISABEL    SUNNY     92  73  53 SE18G32   29.94F
HEBBRONVILLE   MOCLDY    89  70  53 NE17G25   29.91S
MCALLEN        SUNNY     98  68  37 SE23G30   29.90S
WESLACO        SUNNY     96  61  31 SE15G23   29.91S
FALFURRIAS     MOCLDY    89  71  55 E15G26    29.89F
EDINBURG       CLEAR     99  61  27 SE20G25   29.89S
$$



USA.gov is the U.S. government's official web portal to all federal, state and local government web resources and services.